EW1895 Weather Reports


time (UTC)temp
C
wind
direction
speed
KPH
gust
KPH
rain 1hr
cm
rain 24hr
cm
rain mn
cm
humidity
%
barometer
mb
20260831010012 25 193 0.0 0.0 0.00 0.00 0.00 85 1019.6
20260831004511 25 194 0.0 0.0 0.00 0.00 0.00 84 1019.4
20260831003010 25 194 0.0 0.0 0.00 0.00 0.00 83 1019.1
20260831001510 26 194 0.0 0.0 0.00 0.00 0.00 81 1018.9
20260831000009 26 193 0.0 0.0 0.00 0.00 0.00 80 1018.9
20260830234510 27 194 0.0 0.0 0.00 0.00 0.00 78 1018.9
20260830233009 27 194 0.0 0.0 0.00 0.00 0.00 76 1018.9
20260830231511 28 194 0.0 0.0 0.00 0.00 0.00 73 1019.0
20260830230010 28 194 0.0 0.0 0.00 0.00 0.00 71 1019.0
20260830224510 28 194 0.0 0.0 0.00 0.00 0.00 70 1018.8
20260830223010 28 194 0.0 0.0 0.00 0.00 0.00 70 1018.8
20260830221509 28 194 0.0 4.8 0.00 0.00 0.00 67 1018.9
20260830220009 29 194 0.0 0.0 0.00 0.00 0.00 67 1019.0
20260830214508 29 194 0.0 0.0 0.00 0.00 0.00 66 1018.9
20260830213014 30 196 0.0 1.6 0.00 0.00 0.00 63 1018.9
20260830211509 30 196 0.0 4.8 0.00 0.00 0.00 63 1018.8
20260830210009 30 139 0.0 1.6 0.00 0.00 0.00 61 1018.7
20260830204506 31 126 0.0 6.4 0.00 0.00 0.00 62 1018.7
20260830203005 31 238 0.0 1.6 0.00 0.00 0.00 59 1019.0
20260830201504 32 234 0.0 8.0 0.00 0.00 0.00 57 1019.1
20260830200005 32 168 0.0 4.8 0.00 0.00 0.00 56 1019.3
20260830194600 32 188 0.0 6.4 0.00 0.00 0.00 57 1019.5
20260830193056 32 184 0.0 0.0 0.00 0.00 0.00 58 1019.8
20260830191555 32 273 0.0 6.4 0.00 0.00 0.00 58 1020.0
20260830190124 32 122 0.0 8.0 0.00 0.00 0.00 59 1020.4
20260830184607 32 205 0.0 4.8 0.00 0.00 0.00 58 1020.5
20260830183059 31 241 0.0 1.6 0.00 0.00 0.00 61 1020.8
20260830181550 31 159 0.0 0.0 0.00 0.00 0.00 60 1021.1
20260830180047 31 104 0.0 4.8 0.00 0.00 0.00 61 1021.3
20260830174557 32 199 0.0 0.0 0.00 0.00 0.00 59 1021.4
20260830173039 31 199 0.0 1.6 0.00 0.00 0.00 63 1021.6
20260830171536 31 173 0.0 3.2 0.00 0.00 0.00 62 1021.8
20260830170033 30 254 0.0 1.6 0.00 0.00 0.00 64 1021.8
20260830164531 30 294 0.0 1.6 0.00 0.00 0.00 65 1022.1
20260830163032 30 294 0.0 1.6 0.00 0.00 0.00 64 1022.2
20260830161527 29 182 0.0 3.2 0.00 0.00 0.00 67 1022.4
20260830160030 30 106 0.0 1.6 0.00 0.00 0.00 68 1022.6
20260830154519 28 169 0.0 6.4 0.00 0.00 0.00 71 1022.6
20260830153015 28 172 0.0 4.8 0.00 0.00 0.00 73 1022.7
20260830151513 27 168 0.0 8.0 0.00 0.00 0.00 77 1022.8
20260830150012 27 122 0.0 4.8 0.00 0.00 0.00 76 1022.8
20260830144506 25 146 0.0 6.4 0.00 0.00 0.00 83 1022.7
20260830143002 25 144 0.0 3.2 0.00 0.00 0.00 86 1022.8
20260830141608 23 144 0.0 1.6 0.00 0.00 0.00 90 1022.8
20260830140058 23 198 0.0 1.6 0.00 0.00 0.00 92 1022.8
20260830134553 22 197 0.0 3.2 0.00 0.00 0.00 95 1023.1
20260830133054 22 41 0.0 3.2 0.00 0.00 0.00 96 1023.5
20260830131549 22 41 0.0 0.0 0.00 0.00 0.00 97 1023.5
20260830130047 22 40 0.0 0.0 0.00 0.00 0.00 96 1023.6
20260830124544 21 40 0.0 0.0 0.00 0.00 0.00 97 1023.7
20260830123042 21 40 0.0 0.0 0.00 0.00 0.00 97 1023.6
20260830121541 21 40 0.0 0.0 0.00 0.00 0.00 97 1023.7
20260830120037 20 40 0.0 0.0 0.00 0.00 0.00 96 1023.8
20260830114534 20 40 0.0 0.0 0.00 0.00 0.00 96 1023.7
20260830113031 20 40 0.0 0.0 0.00 0.00 0.00 96 1023.5
20260830111530 20 40 0.0 0.0 0.00 0.00 0.00 96 1023.4
20260830110029 19 40 0.0 0.0 0.00 0.00 0.00 96 1023.4
20260830104551 19 40 0.0 0.0 0.00 0.00 0.00 96 1023.3
20260830103030 19 40 0.0 0.0 0.00 0.00 0.00 96 1023.2
20260830101529 19 40 0.0 0.0 0.00 0.00 0.00 96 1023.1
20260830100028 18 40 0.0 0.0 0.00 0.00 0.00 96 1022.9
20260830094530 18 40 0.0 0.0 0.00 0.00 0.00 96 1023.0
20260830093033 18 40 0.0 0.0 0.00 0.00 0.00 96 1022.8
20260830091526 18 40 0.0 0.0 0.00 0.00 0.00 96 1022.8
20260830090024 18 40 0.0 0.0 0.00 0.00 0.00 96 1022.9
20260830084524 18 40 0.0 0.0 0.00 0.00 0.00 95 1022.9
20260830083035 18 40 0.0 0.0 0.00 0.00 0.00 95 1022.9
20260830081522 18 40 0.0 0.0 0.00 0.00 0.00 95 1022.8
20260830080021 18 40 0.0 0.0 0.00 0.00 0.00 95 1022.9
20260830074520 18 40 0.0 0.0 0.00 0.00 0.00 95 1022.9
20260830073019 18 40 0.0 0.0 0.00 0.00 0.00 95 1023.0
20260830071524 18 40 0.0 0.0 0.00 0.00 0.00 95 1023.1
20260830070016 18 40 0.0 0.0 0.00 0.00 0.00 95 1023.1
20260830064517 19 40 0.0 0.0 0.00 0.00 0.00 95 1023.2
20260830063014 19 40 0.0 0.0 0.00 0.00 0.00 95 1023.3
20260830061511 19 40 0.0 0.0 0.00 0.00 0.00 94 1023.5
20260830060014 19 40 0.0 0.0 0.00 0.00 0.00 95 1023.6
20260830054509 19 40 0.0 0.0 0.00 0.00 0.00 95 1023.4
20260830053021 19 40 0.0 0.0 0.00 0.00 0.00 94 1023.4
20260830051517 19 40 0.0 0.0 0.00 0.00 0.00 94 1023.5
20260830050008 19 40 0.0 0.0 0.00 0.00 0.00 94 1023.5
20260830044513 20 40 0.0 0.0 0.00 0.00 0.00 94 1023.6
20260830043008 20 40 0.0 0.0 0.00 0.00 0.00 94 1023.7
20260830041517 20 40 0.0 0.0 0.00 0.00 0.00 94 1023.6
20260830040008 20 40 0.0 0.0 0.00 0.00 0.00 93 1023.5
20260830034508 20 40 0.0 0.0 0.00 0.00 0.00 93 1023.2
20260830033007 20 40 0.0 0.0 0.00 0.00 0.00 93 1023.1
20260830031507 20 40 0.0 0.0 0.00 0.00 0.00 92 1023.0
20260830030007 20 40 0.0 0.0 0.00 0.00 0.00 92 1023.0
20260830024507 20 40 0.0 0.0 0.00 0.00 0.00 92 1022.9
20260830023007 20 40 0.0 0.0 0.00 0.00 0.00 92 1022.8
20260830021506 21 40 0.0 0.0 0.00 0.00 0.00 91 1022.8
20260830020006 21 40 0.0 0.0 0.00 0.00 0.00 91 1022.8
20260830014507 21 40 0.0 0.0 0.00 0.00 0.00 90 1022.6
20260830013005 21 40 0.0 0.0 0.00 0.00 0.00 89 1022.5
20260830011506 21 40 0.0 0.0 0.00 0.00 0.00 89 1022.5